Location: *
(12.5665°N, 8.3471°E)
Time: 11:03:00
(UTC+00:00)

ARIANE 5 R/B - Pass Details

Date: 23 September 2019
Orbit: 229 x 24648 km, 6.2° (Epoch: 23 October)

Event Time Altitude Azimuth Distance (km) Brightness Sun altitude
Exits shadow 04:51:49 - 268° (W) 12,330 7.4 -6.7°
Reaches altitude 10° 04:58:13 10° 267° (W) 10,410 7.1 -5.1°
Maximum altitude 05:22:25 52° 196° (SSW) 1,570 3.6 0.8°
Drops below altitude 10° 05:26:37 10° 118° (ESE) 2,039 5.5 1.8°
Sets 05:27:53 0° 111° (ESE) 2,556 6.3 2.1°
